ECMWFNIL_sfc_thetae_051.txt.gz
Theta_e
293 293 293 293 293 293 292 291 291 291 290 290 290 289 289 289 289 288 288 288 288 287 287 287 286 286 286 285 285 285 285 285 285 285 284 284 284 285 282 284 284 284
292 292 292 293 293 292 292 291 290 290 290 290 290 290 290 290 289 289 288 288 287 287 287 286 286 286 286 285 285 284 284 284 284 284 283 283 283 283 283 284 284 284
292 292 292 291 292 291 291 290 290 290 290 290 290 290 290 289 289 288 288 287 287 287 287 286 286 286 285 285 284 284 284 283 283 283 283 283 283 282 283 283 283 283
291 291 291 291 292 291 291 290 289 289 289 289 288 289 288 288 288 287 287 287 287 286 286 286 285 285 285 284 284 283 284 283 284 283 282 283 282 282 282 282 282 282
290 290 290 291 291 290 290 289 289 288 288 289 288 288 287 287 287 287 286 286 286 286 286 285 285 284 284 283 283 283 283 283 282 282 282 281 282 281 282 281 281 280
290 290 290 290 290 290 289 288 289 288 288 287 288 288 287 287 287 286 286 286 286 286 285 285 284 284 283 283 282 282 282 282 282 281 281 281 281 281 281 281 280 280
289 289 289 289 289 289 289 288 288 288 288 288 287 287 287 286 286 286 286 286 286 285 285 284 284 283 283 283 282 282 282 282 281 281 281 281 281 280 280 280 280 280
288 288 288 288 288 288 288 288 288 288 288 287 287 287 286 286 286 286 286 286 285 285 285 284 284 283 283 282 282 281 281 281 281 280 280 280 280 280 280 280 280 280
287 287 287 287 287 288 288 288 288 288 287 287 286 286 286 286 286 286 285 285 285 285 285 284 284 283 283 282 282 282 281 281 281 280 280 280 280 280 279 279 279 279
287 287 287 287 286 287 287 288 288 288 287 287 287 286 285 285 286 286 285 285 284 284 284 284 284 283 283 282 282 282 282 281 281 280 280 280 280 280 279 279 279 279
287 287 286 286 286 287 287 287 288 288 287 287 286 286 286 285 285 285 285 285 284 284 284 284 284 283 283 282 282 282 282 282 281 281 280 280 280 280 280 279 279 279
286 287 287 286 287 287 287 287 287 287 287 287 286 286 286 285 285 285 285 284 284 284 284 284 284 283 283 282 282 282 282 282 282 281 280 280 280 280 280 280 279 279
286 286 286 287 287 287 287 287 287 287 287 287 286 286 286 285 285 284 285 285 285 285 284 284 284 284 283 283 282 282 282 281 281 281 280 280 280 280 280 280 280 280
286 286 286 286 287 287 287 287 287 286 286 287 287 286 285 285 285 284 284 285 285 284 284 284 284 283 283 283 282 282 282 281 281 281 280 280 280 280 280 280 280 280
285 286 286 286 286 286 286 286 286 286 286 286 286 286 286 285 285 285 284 284 284 284 284 284 283 283 283 283 282 282 281 281 281 281 280 280 280 280 280 279 279 279
285 285 285 285 285 285 286 286 286 286 286 285 285 286 286 285 285 285 284 284 284 284 284 283 283 284 284 285 285 282 282 281 281 281 281 280 279 279 279 279 279 279
284 284 284 285 285 285 285 285 285 285 285 285 285 285 285 285 284 284 284 284 284 283 283 283 283 284 285 286 286 286 283 281 281 281 281 280 280 279 278 278 278 278
283 283 283 284 284 284 284 284 284 284 284 284 284 284 285 284 284 284 284 284 283 283 283 283 283 285 286 287 287 287 285 282 281 281 280 280 280 279 279 278 277 277
283 282 282 282 283 283 283 283 283 283 283 284 284 284 284 283 283 283 283 284 283 283 283 283 283 286 287 287 287 287 287 284 281 281 280 280 280 279 279 278 277 277
282 281 281 281 281 282 282 281 281 281 282 282 283 283 283 283 283 283 283 283 283 283 283 283 283 285 286 287 287 287 287 286 282 281 280 280 279 279 279 278 277 276
282 281 280 281 281 281 280 281 281 281 281 282 282 282 282 282 282 282 282 282 282 282 282 282 282 285 286 286 287 287 288 287 283 281 280 280 279 279 278 278 277 277
282 281 280 280 280 280 280 281 281 281 280 281 281 281 281 281 281 281 281 281 282 281 281 281 282 284 285 286 287 287 288 286 284 281 280 279 279 278 278 278 277 276
282 281 280 280 280 280 280 280 280 280 281 281 280 280 280 280 280 280 281 280 280 280 280 280 281 283 284 285 286 287 287 285 284 281 280 278 278 278 277 277 277 277
282 281 281 280 280 279 280 280 280 280 280 280 279 279 279 279 280 279 279 279 279 279 280 279 280 281 283 284 285 286 286 284 283 281 279 278 277 277 277 277 277 278
281 281 281 281 280 280 280 279 280 280 280 278 278 278 278 279 278 278 278 278 278 278 280 279 279 280 282 283 285 286 286 284 283 281 279 278 277 276 276 276 276 278
281 281 281 280 280 280 280 280 280 279 279 279 278 278 277 277 276 276 276 277 277 276 276 277 278 278 279 282 284 285 286 285 283 280 278 277 276 276 275 275 275 276

ECMWFNIL_sfc_thetae_054.txt.gz
Theta_e
299 299 299 299 299 300 299 299 298 298 297 297 297 297 296 296 296 296 295 295 295 295 294 294 294 294 294 294 293 293 292 292 292 292 292 292 292 292 293 293 294 293
298 298 298 298 298 299 299 299 298 298 297 297 297 297 297 296 296 295 295 294 294 294 294 294 294 293 293 292 292 291 291 291 291 293 291 292 291 292 292 293 293 293
297 297 297 297 297 298 298 298 298 298 297 297 297 297 297 297 296 295 295 294 294 294 294 293 293 293 292 292 292 291 290 290 290 291 290 291 291 290 291 292 291 292
296 296 296 296 297 297 298 298 298 297 297 296 296 297 296 297 296 295 295 293 293 293 293 293 292 292 292 291 291 290 290 290 290 291 290 290 290 290 290 290 290 291
295 295 295 296 296 296 297 296 296 297 296 296 296 297 295 295 295 294 294 293 293 292 292 292 292 291 291 291 290 290 289 289 289 290 289 288 289 289 289 289 289 288
293 294 294 294 295 295 295 295 295 296 296 295 295 295 295 295 294 293 293 293 292 292 292 292 291 291 290 290 290 289 289 288 288 288 287 287 288 288 288 288 287 287
291 292 292 293 293 294 293 294 294 295 295 295 295 294 294 293 293 293 293 293 292 292 291 291 291 290 290 289 289 288 288 288 288 287 287 287 287 286 287 286 286 286
291 291 291 291 291 292 292 292 292 293 294 294 293 293 294 293 293 293 293 292 292 291 291 291 290 290 289 289 288 287 287 287 287 286 286 286 286 285 286 286 286 285
291 291 291 291 291 291 291 291 292 292 293 292 292 292 293 292 292 292 292 292 291 291 290 290 290 289 289 288 287 287 286 286 286 286 285 285 285 285 286 286 285 285
290 290 290 290 290 290 290 291 291 292 292 292 292 292 291 292 291 291 291 290 290 290 290 289 289 289 288 288 288 287 287 286 286 286 285 285 285 285 285 285 284 284
288 288 288 288 288 289 289 290 290 291 291 291 291 291 291 291 290 290 290 290 290 289 289 289 289 288 288 288 288 287 287 287 286 286 285 285 285 285 285 285 284 284
287 287 287 287 288 288 288 289 290 290 290 290 291 291 290 290 289 289 289 289 289 289 289 289 289 288 288 287 287 287 286 286 286 286 286 285 285 285 285 285 285 285
287 286 286 286 287 287 288 288 288 289 289 289 289 289 289 289 289 289 289 289 289 289 289 289 288 288 288 287 287 287 286 286 286 286 286 285 285 285 285 285 285 285
287 287 286 286 286 287 287 287 287 287 287 288 288 288 288 288 288 288 289 289 289 289 289 289 288 288 288 287 287 286 286 286 286 285 285 285 285 285 285 285 285 285
287 287 287 287 287 287 286 286 286 286 287 287 287 287 287 287 288 288 288 288 288 287 287 287 288 287 287 287 286 286 286 285 286 285 285 285 285 285 285 285 285 285
287 287 286 286 286 286 286 286 285 286 286 287 287 287 287 287 287 287 288 288 288 288 287 287 287 288 287 287 287 286 285 285 285 285 285 285 284 284 284 284 284 284
286 286 286 285 286 286 286 285 285 285 286 286 286 286 286 286 286 286 286 287 287 287 287 287 287 287 287 289 289 289 287 285 284 284 284 284 284 284 283 284 284 284
286 285 285 285 285 285 285 285 285 285 285 285 285 285 285 286 285 285 286 286 286 287 287 287 286 287 288 289 289 289 288 286 285 284 284 284 284 284 283 284 283 283
286 285 285 284 284 284 284 284 284 285 285 285 285 285 285 285 285 285 284 285 285 285 285 285 286 287 288 289 289 289 289 288 285 285 284 284 284 284 283 283 283 283
285 285 284 284 284 284 284 284 284 284 284 285 285 285 285 284 284 284 284 284 284 284 284 284 285 286 287 288 289 289 289 289 286 285 285 284 284 284 283 282 282 282
285 285 284 284 284 284 284 284 284 284 284 284 284 284 284 284 284 284 284 284 284 284 284 284 284 286 286 287 288 288 289 289 286 285 285 284 284 284 283 283 282 282
284 284 284 284 283 283 283 283 283 283 283 284 284 284 284 284 284 284 284 284 284 283 283 282 284 285 286 286 287 287 288 287 286 285 285 284 283 283 283 282 282 282
284 283 283 283 283 283 283 283 282 283 283 283 283 283 283 283 283 283 284 283 283 282 282 282 283 284 285 285 286 286 286 286 286 286 285 285 284 283 282 282 282 281
284 283 283 283 282 281 282 282 282 283 282 283 282 282 281 282 282 282 282 282 282 282 282 281 282 283 284 284 285 285 285 285 285 285 285 285 284 284 283 282 281 282
283 283 283 282 281 281 281 281 281 281 282 283 282 282 281 282 282 282 282 282 282 282 282 281 281 282 283 284 284 284 285 285 285 285 284 284 284 284 283 281 280 281
283 282 281 281 280 280 281 281 281 281 281 281 281 281 281 281 281 281 280 281 281 281 281 281 280 281 282 283 283 284 284 284 284 283 283 283 284 283 282 281 280 279

ECMWFNIL_sfc_thetae_057.txt.gz
Theta_e
298 298 298 298 298 299 299 299 300 300 300 300 299 299 300 300 300 299 299 299 298 298 298 298 297 297 297 296 296 296 295 295 295 295 294 293 293 293 293 294 295 295
297 297 297 298 298 299 299 299 299 299 299 299 299 299 300 300 300 299 299 298 298 297 298 297 297 297 296 295 295 294 293 293 293 294 293 293 293 292 292 293 293 294
295 296 296 296 296 297 297 298 298 298 298 299 299 299 299 300 300 299 298 298 297 297 297 297 296 296 295 295 294 294 293 292 292 293 292 292 292 292 292 292 292 293
294 294 294 295 295 296 296 296 297 297 298 298 298 299 299 300 299 299 298 297 297 296 296 296 295 295 295 294 294 293 293 292 292 292 292 292 292 292 291 291 292 292
294 293 293 293 294 294 295 295 295 296 296 296 297 297 297 297 297 297 296 296 295 295 295 295 295 294 294 294 293 292 292 292 292 292 291 291 291 291 291 291 290 290
293 293 293 293 293 293 292 292 293 293 294 294 295 295 296 296 295 295 295 295 295 294 294 294 294 293 293 293 292 292 292 291 291 291 290 290 290 290 290 290 290 289
292 292 292 292 292 292 291 291 292 292 293 293 294 294 294 294 294 294 294 294 294 294 293 293 293 292 292 292 292 291 291 291 291 290 289 289 290 289 290 289 289 289
290 290 291 291 291 291 290 291 291 291 291 292 292 293 293 293 293 293 293 293 293 293 293 293 292 292 292 292 291 290 290 291 290 289 289 288 289 288 289 289 289 288
289 289 289 289 289 289 289 289 290 290 291 290 291 291 292 292 292 292 292 292 292 292 292 292 292 292 292 291 290 290 289 289 290 289 288 288 287 288 288 288 288 287
287 287 287 287 287 288 288 288 289 289 289 289 290 290 290 291 291 291 291 290 290 290 291 291 291 291 291 290 290 289 289 289 288 288 288 288 287 287 287 287 287 286
286 287 287 287 287 287 286 287 288 288 288 288 288 288 289 289 290 291 290 290 289 289 289 289 290 290 289 289 289 289 289 288 288 288 287 287 287 287 287 287 286 286
286 286 287 287 287 287 287 287 287 287 287 287 287 287 288 288 289 289 289 289 289 289 289 289 289 289 289 289 289 288 288 288 288 288 287 287 287 287 287 287 286 286
286 286 286 286 287 287 288 287 287 286 286 285 286 286 286 286 287 287 288 288 288 289 289 289 289 289 289 289 289 288 288 287 287 287 287 287 286 286 286 286 286 286
287 286 287 287 286 287 286 287 287 286 286 286 286 286 286 286 286 286 287 287 287 288 288 288 288 288 288 288 288 288 287 287 287 286 286 286 286 286 286 286 286 286
287 287 287 287 286 286 285 285 285 286 286 286 286 286 287 287 287 286 286 286 286 287 287 287 287 287 288 287 287 287 288 287 287 286 286 286 286 286 286 286 286 286
287 287 286 286 285 285 285 285 285 285 285 285 286 286 286 286 286 286 286 285 285 286 286 287 287 287 287 288 289 287 286 287 287 286 286 286 285 285 286 286 286 286
286 286 286 286 286 285 285 285 285 285 285 284 285 285 286 286 286 285 285 285 285 285 285 286 286 287 288 289 289 290 288 287 286 286 286 285 285 285 285 285 285 285
285 286 286 286 285 285 285 285 284 284 284 284 284 284 284 285 285 285 285 285 285 285 285 285 285 287 288 289 289 289 289 287 286 286 285 285 285 285 285 285 285 285
285 285 285 285 285 285 285 285 284 284 284 283 283 284 284 284 284 285 284 285 285 284 284 285 285 287 288 288 288 288 288 288 287 286 285 285 285 285 285 285 285 284
285 284 284 284 285 285 285 284 284 283 283 284 284 284 283 283 283 283 284 284 284 284 284 284 284 286 287 287 288 288 288 288 286 286 286 285 285 285 285 284 285 284
284 284 284 284 284 284 284 283 283 283 283 283 283 283 282 282 283 282 282 283 283 284 284 284 284 286 287 287 287 288 288 288 286 286 286 285 285 285 285 285 284 285
283 283 283 283 283 283 283 282 282 282 282 283 283 283 283 283 283 283 282 282 282 282 282 282 283 286 286 287 287 287 288 286 285 285 285 285 285 285 285 285 285 284
283 282 282 283 283 282 282 282 281 282 282 283 282 282 282 282 282 282 282 282 282 282 281 282 282 284 286 286 286 286 286 285 285 285 285 285 285 285 285 285 285 285
282 282 281 281 281 281 281 281 281 281 281 282 281 280 280 281 281 282 282 282 281 281 281 281 281 283 284 285 285 286 285 284 284 284 283 284 285 286 286 286 285 285
280 280 279 279 279 279 279 279 280 280 281 281 281 281 280 281 281 281 281 282 282 281 282 282 281 282 284 285 285 285 284 283 283 283 282 283 284 284 285 285 285 285
277 277 276 276 276 277 278 278 279 279 280 280 280 280 280 280 280 280 280 280 280 281 280 281 280 280 282 284 284 285 285 283 283 282 281 282 283 283 283 284 285 285

ECMWFNIL_sfc_thetae_060.txt.gz
Theta_e
292 292 292 293 293 293 293 293 293 294 294 294 293 294 293 294 294 293 293 293 293 293 293 293 293 293 293 293 292 291 291 291 290 289 289 290 289 289 289 288 288 288
291 291 291 292 292 292 292 293 293 293 293 293 294 293 294 294 294 294 293 292 292 292 292 292 292 292 291 291 290 290 289 288 288 290 289 288 288 288 288 288 287 288
291 290 290 290 290 290 291 291 291 292 292 292 293 293 294 294 294 293 293 291 291 292 292 292 291 291 290 289 288 289 288 287 288 287 287 287 287 287 288 287 287 287
290 289 289 289 290 289 290 290 290 290 290 290 291 291 292 292 292 291 291 291 289 288 288 288 289 289 288 288 288 288 288 287 287 287 286 286 286 286 287 286 287 287
287 287 287 288 289 289 289 288 288 289 289 289 289 290 290 290 289 289 289 289 289 288 289 288 288 288 288 288 287 288 287 287 287 286 286 286 286 286 286 286 286 286
286 286 286 287 287 288 287 287 287 287 287 287 288 288 288 288 288 288 288 288 288 288 288 288 288 288 288 288 288 288 287 287 287 286 286 286 286 285 286 286 285 286
286 286 286 286 285 286 285 285 285 286 286 286 286 286 287 287 287 287 287 287 287 288 288 288 288 288 288 287 287 287 287 287 286 286 286 286 286 286 285 285 285 285
286 286 286 286 285 284 283 283 284 284 285 285 285 286 286 286 286 286 287 287 287 287 287 287 287 287 287 287 287 287 286 287 287 286 286 286 285 285 286 286 285 285
285 284 284 284 284 284 284 284 284 284 284 284 284 285 286 286 286 286 286 286 286 286 286 286 287 287 287 287 287 286 286 286 286 286 286 286 285 285 286 286 285 285
283 283 283 283 284 284 284 284 284 284 284 283 283 283 284 285 285 285 286 285 286 286 286 286 286 286 286 286 286 286 286 286 286 285 286 286 286 286 285 285 285 285
282 282 281 282 282 283 283 283 284 284 284 283 283 283 283 284 285 285 285 285 285 285 285 285 286 286 286 286 286 286 286 286 286 286 286 285 286 286 286 285 285 285
281 281 281 280 281 282 282 283 283 283 283 283 283 283 282 283 284 284 284 284 284 284 284 285 285 286 285 285 285 285 286 286 286 286 286 285 285 285 285 286 285 285
280 280 281 281 281 281 281 280 281 281 281 282 282 282 282 282 282 283 283 283 284 283 284 284 284 285 285 285 285 285 285 285 285 285 285 285 285 285 285 285 285 285
280 281 281 281 282 282 281 281 280 280 281 281 281 281 281 282 282 283 283 283 283 283 283 283 283 284 284 285 285 285 285 285 285 285 285 285 285 285 285 285 285 285
281 280 280 280 281 281 281 281 281 281 281 281 281 281 282 281 282 282 282 282 282 282 282 283 283 284 284 284 284 284 285 285 285 285 285 285 285 285 285 285 285 285
280 280 281 281 281 281 281 281 282 282 282 281 281 281 281 281 282 282 281 281 281 281 281 282 283 284 285 287 288 286 285 285 285 285 285 285 284 284 285 285 285 285
279 280 280 280 280 280 280 280 281 281 281 281 281 281 281 281 281 281 281 281 281 281 281 282 282 283 286 288 289 289 287 285 285 285 285 285 284 284 284 285 285 285
281 281 280 280 280 280 280 281 281 280 280 280 280 280 281 281 280 280 281 281 281 281 281 281 281 284 287 288 288 289 289 286 285 284 284 284 284 284 284 284 285 285
281 280 280 280 281 281 281 281 280 280 280 280 280 280 280 280 280 280 280 280 280 280 280 281 281 285 287 287 288 288 289 288 285 285 284 284 284 284 284 284 284 284
280 280 280 280 280 280 280 280 280 280 280 280 280 280 280 280 280 280 280 280 280 280 280 280 280 284 286 287 287 288 288 288 284 284 284 284 284 284 284 284 284 284
279 278 278 279 279 279 279 279 279 279 279 280 280 279 279 279 279 279 280 280 280 280 280 280 280 284 286 286 287 287 288 288 284 284 283 283 283 284 284 284 284 284
277 277 277 277 277 277 277 277 277 277 277 278 279 279 279 279 279 279 279 279 280 280 279 279 280 284 285 285 286 286 287 285 283 282 281 282 282 283 283 283 284 284
275 274 274 274 274 274 274 274 274 274 275 276 275 276 276 277 277 278 279 279 279 279 279 279 279 282 284 285 285 286 285 283 283 281 281 281 281 281 282 283 283 283
272 272 272 272 271 270 270 270 270 271 271 272 272 273 273 275 276 277 278 278 278 278 278 278 279 281 284 284 285 285 285 282 281 280 280 280 280 281 281 282 283 284
269 269 268 267 266 266 266 266 267 267 269 270 271 272 272 274 275 275 276 277 277 278 279 279 278 280 283 284 285 285 284 282 281 280 279 279 279 279 280 281 281 283
266 265 265 265 264 264 264 264 265 266 266 267 267 268 269 270 271 272 272 274 275 276 276 277 277 278 279 282 283 284 284 282 281 279 278 278 278 279 279 279 280 281

ECMWFNIL_sfc_thetae_063.txt.gz
Theta_e
288 288 288 288 288 288 288 288 288 288 288 288 288 288 289 290 290 290 290 290 291 291 291 291 290 289 291 290 290 290 290 290 289 288 288 288 288 287 288 288 286 286
286 287 287 287 287 287 288 288 287 287 287 288 288 288 289 289 289 289 289 289 289 290 290 290 290 289 289 289 288 289 289 288 288 289 287 286 286 286 287 287 287 287
285 285 285 285 286 285 286 287 287 287 287 287 288 288 288 289 288 288 288 287 287 288 288 288 288 288 288 287 287 287 287 287 287 287 286 286 286 285 286 286 286 286
284 284 284 285 285 285 284 284 285 285 286 286 286 287 288 288 287 287 287 287 287 287 286 286 286 286 286 287 286 287 287 286 286 286 286 286 285 285 285 285 285 285
284 284 284 284 284 284 283 283 283 284 284 285 285 286 286 286 286 286 286 286 287 287 287 286 286 286 285 286 286 286 286 286 286 285 285 285 286 285 285 285 284 284
284 284 283 283 283 283 283 282 283 283 283 284 284 285 285 284 284 284 285 285 286 286 286 286 287 287 286 285 285 286 286 286 286 285 285 285 285 286 286 285 284 284
285 285 285 285 284 284 283 283 283 282 281 282 283 283 283 283 283 283 284 284 285 285 285 286 286 286 287 286 285 285 285 285 285 285 285 285 285 285 285 285 285 284
284 284 284 284 283 282 282 282 283 283 283 283 281 281 280 281 281 282 282 282 283 284 285 285 285 286 286 286 286 285 285 286 286 285 285 285 285 285 285 286 285 285
283 282 282 282 282 282 281 281 282 282 283 282 282 282 282 281 281 281 281 281 281 282 283 284 284 284 285 285 285 285 285 286 286 285 285 285 285 285 286 286 285 285
281 281 281 281 281 282 282 282 281 282 282 281 281 281 281 282 281 281 281 281 281 282 282 283 283 284 284 284 285 285 285 285 285 286 285 285 285 286 286 286 286 285
280 280 280 280 280 281 281 282 281 281 282 281 281 281 281 281 281 281 281 281 281 281 282 282 282 283 283 284 284 284 284 284 284 285 285 285 285 286 286 286 286 285
281 280 281 280 280 280 281 282 282 282 282 282 281 281 281 281 281 281 281 281 281 281 281 281 282 282 282 282 283 284 284 284 284 284 284 284 285 285 285 285 285 285
279 280 280 280 280 280 280 280 281 281 281 281 281 280 280 281 281 281 281 281 281 281 281 281 281 282 282 282 283 282 283 283 283 283 283 284 284 284 284 284 285 285
280 279 279 279 280 280 280 280 280 280 279 280 280 280 280 280 280 280 281 281 281 281 281 281 281 281 282 282 282 282 282 282 283 283 283 283 283 284 284 284 284 284
279 279 280 280 280 280 281 281 281 281 281 281 281 280 280 279 279 279 279 280 280 280 281 281 281 281 282 282 282 282 282 281 282 283 283 282 283 283 284 284 284 284
279 279 280 280 280 280 280 280 280 280 280 280 281 281 281 281 280 280 279 279 279 279 279 280 280 281 283 285 287 284 283 283 283 283 283 283 282 282 283 284 284 284
279 279 279 279 279 279 279 279 279 280 280 280 280 280 280 280 280 280 280 280 280 279 279 280 280 281 284 286 286 287 285 283 283 283 283 283 283 282 282 283 283 284
278 278 278 278 278 278 278 278 278 278 278 278 279 279 279 280 279 279 280 280 280 280 279 279 279 283 285 285 285 286 286 284 283 282 283 283 283 282 282 282 282 283
276 276 276 276 276 276 276 275 275 275 275 276 276 277 277 277 277 278 278 279 279 278 278 279 279 282 284 284 285 285 286 285 283 283 282 282 283 282 282 282 282 282
274 273 274 274 273 273 273 273 273 273 273 274 274 274 274 274 274 275 275 276 276 277 277 277 278 281 283 283 284 284 285 285 282 282 282 282 282 282 282 282 282 281
272 272 271 271 271 271 270 270 270 269 270 270 270 270 270 270 270 270 271 272 273 274 274 275 276 279 280 281 282 283 284 285 282 282 281 281 281 281 282 282 282 282
269 268 268 267 267 267 266 266 266 266 266 267 267 267 267 268 268 269 269 269 270 271 271 272 273 278 279 280 281 282 284 281 280 280 280 280 280 281 281 281 282 282
267 266 265 265 265 264 264 264 264 264 264 265 264 264 265 265 265 266 267 267 267 268 269 270 271 274 277 278 280 281 281 279 279 279 279 279 279 280 280 280 281 281
265 264 263 263 263 262 262 263 263 263 262 263 262 262 262 263 263 264 264 265 265 266 267 267 268 271 274 276 277 278 278 276 277 278 278 279 279 280 280 280 280 282
263 263 262 262 261 261 261 261 261 261 262 262 262 262 262 262 262 262 262 263 264 264 266 265 264 267 271 273 274 275 274 274 275 276 276 277 278 279 279 279 279 281
262 262 261 261 260 260 260 260 261 260 260 261 260 261 260 261 261 261 261 261 262 263 263 263 264 264 267 272 273 274 276 273 273 273 274 275 277 277 277 278 278 279

ECMWFNIL_sfc_thetae_066.txt.gz
Theta_e
284 285 284 283 283 284 284 283 283 283 283 283 283 284 284 285 285 285 285 286 287 287 287 287 287 287 288 288 288 288 288 288 288 288 287 286 286 285 286 286 286 286
283 284 284 284 283 283 283 283 283 282 282 282 283 283 284 284 284 284 285 285 286 287 287 287 286 286 285 285 285 285 286 286 286 288 286 286 286 285 285 285 285 286
282 282 282 281 282 281 282 282 282 282 282 282 282 283 283 284 284 283 284 284 285 285 286 286 286 286 285 285 284 284 285 285 285 286 285 285 285 285 285 285 285 284
281 282 282 282 282 281 281 281 281 281 280 281 281 282 282 283 282 282 283 283 283 283 284 285 285 285 285 286 285 285 284 284 284 284 284 285 285 285 285 285 284 284
281 282 283 282 281 281 281 281 282 282 282 281 281 280 281 281 281 281 282 282 282 282 283 284 284 284 285 285 285 285 285 284 284 284 284 284 285 285 285 285 284 284
283 283 282 282 282 281 282 280 280 281 282 282 282 282 281 281 281 281 282 282 283 283 282 282 283 283 284 284 284 284 285 285 285 284 284 284 285 285 285 285 284 284
283 282 282 282 282 281 281 281 281 281 281 281 281 281 281 281 281 281 281 282 282 283 283 283 283 283 283 283 283 283 283 284 284 285 284 284 284 285 286 285 285 284
280 280 280 280 280 280 280 281 281 281 281 281 281 281 280 281 281 281 281 281 281 281 282 282 282 282 282 282 282 281 282 283 284 283 283 283 284 284 285 286 286 285
280 280 279 279 279 279 279 280 280 280 280 280 281 281 281 281 281 280 280 280 280 280 281 281 282 282 282 282 282 282 282 282 282 282 282 282 283 283 284 284 284 285
278 279 278 279 279 280 279 279 279 280 280 280 280 280 280 280 280 280 280 280 280 280 280 280 280 281 281 281 282 282 281 281 282 282 282 282 282 283 283 283 283 284
278 278 278 279 278 279 279 279 279 280 280 280 280 280 280 280 280 279 279 279 280 280 280 280 281 281 280 281 281 281 281 281 281 282 282 282 282 282 283 283 283 283
279 279 279 279 279 279 279 279 279 279 279 279 279 279 279 279 279 280 280 279 279 279 279 280 280 280 280 280 280 280 281 281 281 281 281 281 282 282 282 282 282 283
278 278 278 278 278 279 279 279 279 279 279 279 279 279 278 279 279 279 279 279 279 280 279 280 280 280 280 280 280 280 280 280 280 281 281 281 281 281 282 282 282 282
278 278 278 278 278 278 278 278 278 278 278 279 279 278 278 278 278 279 279 279 279 279 279 279 279 279 279 279 279 279 279 279 279 280 280 281 281 281 281 281 282 282
276 277 277 277 277 277 277 277 277 277 277 277 277 277 277 277 277 278 277 278 278 278 278 279 279 279 279 279 279 279 280 279 280 280 280 280 280 281 281 281 281 282
275 275 275 275 275 275 275 275 275 275 274 274 274 274 275 275 275 276 276 275 276 276 276 277 277 278 280 281 282 281 280 281 280 280 280 280 280 280 280 281 281 281
274 274 274 273 273 274 273 273 272 272 272 272 272 273 273 273 273 272 273 273 273 273 273 274 275 276 278 280 281 282 280 279 279 279 279 279 279 279 279 280 281 281
272 272 272 272 272 271 271 270 270 270 269 269 269 269 270 270 269 270 270 270 270 270 270 271 271 274 276 277 278 279 280 277 277 277 277 278 278 279 279 279 280 280
271 271 270 269 269 268 268 268 267 267 267 267 266 267 267 267 267 267 267 268 268 267 268 268 268 272 274 276 277 278 279 278 276 276 276 276 277 278 278 279 279 279
269 268 267 267 267 266 266 265 265 264 265 265 265 265 265 265 265 265 265 265 265 265 265 266 266 269 272 274 275 276 277 277 274 274 274 275 276 277 277 278 278 279
267 266 265 265 265 264 264 263 263 263 263 264 264 264 263 263 263 262 263 263 264 264 264 263 264 269 272 273 274 275 275 275 272 272 273 273 274 275 276 278 278 279
265 264 264 263 263 263 262 262 262 262 262 262 262 262 262 262 262 262 262 262 262 262 262 262 263 269 270 271 272 273 274 271 270 270 270 271 271 272 274 276 278 279
264 263 262 262 262 261 261 261 261 261 261 261 261 261 261 261 261 261 261 261 261 261 261 261 262 265 269 270 271 273 272 269 269 269 269 269 270 271 272 273 274 276
263 262 261 261 261 260 260 261 261 261 260 261 260 260 259 260 260 260 260 260 260 260 261 261 261 264 269 270 271 272 271 268 268 268 268 269 269 270 271 272 273 275
262 261 261 260 260 260 260 259 259 259 260 260 260 259 259 259 259 259 259 259 260 260 262 261 261 263 267 269 270 271 269 268 268 268 268 268 269 270 271 272 272 274
261 260 260 259 259 259 259 259 259 259 259 259 259 259 258 258 258 258 258 258 259 260 260 261 261 261 263 269 270 271 272 268 268 267 267 267 268 268 269 271 272 273

ECMWFNIL_sfc_thetae_069.txt.gz
Theta_e
282 282 282 281 282 282 281 281 281 281 281 280 280 281 281 282 282 282 282 282 282 282 282 283 283 283 284 284 284 285 285 284 284 284 285 284 284 284 285 284 283 283
281 282 282 281 282 282 281 281 280 280 280 280 280 280 281 281 282 281 281 281 282 281 281 282 282 282 282 282 282 282 283 283 283 284 284 284 284 284 284 284 283 283
281 281 281 281 281 280 280 280 280 280 280 280 279 280 281 281 281 281 281 281 281 281 281 281 281 281 281 282 283 283 282 282 282 283 283 283 283 283 284 285 285 284
282 282 283 283 282 281 280 280 280 280 280 281 281 281 281 281 280 280 280 280 280 280 280 280 280 280 280 280 280 281 281 281 282 282 282 282 283 283 283 283 284 285
282 282 281 281 280 280 279 279 279 279 279 280 280 281 281 281 280 280 280 280 280 280 280 280 279 280 280 280 280 280 280 280 281 281 281 281 282 282 283 283 283 284
281 280 280 279 279 279 280 279 279 280 280 280 280 281 280 279 279 279 280 279 280 280 280 279 279 279 279 279 279 279 280 279 280 280 280 280 281 281 282 283 282 282
280 280 280 279 279 279 279 279 279 280 280 279 279 280 280 280 279 280 280 280 279 280 280 280 279 280 280 279 278 278 279 279 279 279 279 279 279 280 280 281 281 281
279 278 278 278 278 278 278 278 278 279 279 278 278 279 279 279 279 279 279 279 279 279 279 279 279 279 279 279 279 279 279 280 280 279 279 279 279 279 279 280 280 280
278 278 278 278 278 278 278 278 278 278 278 278 278 278 278 278 278 278 278 278 278 278 278 279 279 279 279 279 279 279 278 279 279 278 278 278 278 279 279 279 279 279
277 277 277 277 277 277 277 277 277 277 277 277 278 277 278 278 278 278 278 277 277 278 278 278 278 278 278 278 278 278 278 278 279 279 278 278 278 278 278 279 279 279
276 276 276 276 276 276 276 277 277 277 277 277 277 277 277 277 277 277 277 277 277 277 277 277 277 277 277 278 278 278 278 278 278 278 278 278 278 278 280 279 278 278
276 275 275 275 275 275 275 276 276 275 275 276 276 275 275 275 275 275 275 275 275 275 276 276 276 276 276 276 277 277 277 278 278 278 278 278 278 278 278 279 278 279
275 275 275 275 275 275 275 274 274 274 274 273 274 273 273 273 273 273 273 274 273 274 274 274 274 274 274 274 275 276 276 276 276 277 277 278 278 279 279 279 279 279
274 274 274 274 274 274 274 274 273 272 272 272 272 271 271 271 271 271 271 271 271 271 272 272 272 272 272 273 273 273 274 275 275 275 276 276 277 277 278 278 278 279
273 273 273 273 272 272 272 272 271 271 271 270 270 270 271 270 270 270 269 269 269 270 269 270 270 270 271 271 272 273 274 274 274 274 274 274 274 275 276 276 277 278
271 271 271 271 271 271 270 270 269 269 269 268 268 268 268 268 268 268 267 267 267 267 267 267 267 268 270 274 275 273 273 273 273 273 273 273 273 273 274 275 275 276
271 270 271 270 270 269 268 268 267 267 266 266 266 266 266 266 266 266 266 266 265 265 265 265 266 267 271 274 274 275 273 272 271 272 272 272 272 272 273 273 274 275
270 269 268 268 267 267 266 265 265 264 264 264 264 264 264 265 264 264 264 264 264 264 264 264 264 268 271 272 273 274 275 272 272 271 271 271 272 272 272 272 273 273
268 267 266 265 265 264 264 264 263 263 263 263 262 263 263 263 263 263 263 263 263 262 262 263 263 267 270 271 272 274 274 273 271 271 270 270 270 270 270 270 271 271
266 264 264 264 264 263 263 263 262 262 262 262 262 262 262 262 261 262 262 262 262 262 262 262 262 265 269 271 272 273 273 273 270 270 270 269 269 269 269 269 269 269
265 264 263 263 263 262 262 261 261 261 261 262 261 261 261 260 260 260 261 261 261 261 261 261 261 267 269 271 271 272 273 273 270 269 268 268 268 269 269 269 269 269
263 262 262 262 262 261 261 261 261 260 260 261 261 261 261 261 260 260 260 260 260 260 260 260 261 267 268 270 271 272 273 269 268 267 267 267 268 268 269 269 270 270
263 262 261 261 261 260 260 259 260 260 260 260 259 260 260 259 259 259 259 259 259 259 259 259 259 264 268 269 270 271 270 267 267 267 267 266 267 268 268 269 270 270
262 260 260 260 259 259 259 260 260 260 259 260 259 259 258 258 259 258 259 259 259 258 259 259 259 263 267 269 270 271 270 267 266 266 266 266 267 268 268 268 269 271
260 260 260 259 259 259 259 258 259 259 259 259 259 258 258 258 258 258 258 258 258 258 261 260 259 261 266 268 269 270 269 267 267 266 265 266 266 266 267 268 268 269
259 259 259 258 258 258 258 258 259 258 258 258 258 258 257 257 257 257 257 257 258 258 258 259 259 259 262 268 269 270 271 268 267 266 265 265 266 266 266 267 268 268